SCP
0 0 0 -0 0 0 0 0 -0 0 0 0 0 0 0 -0 -0 -0 -0 0 -0 -0 -0 -0 -0 -0 -0 -0 0 0 -0 -0
0 0 0 0 0 0 0 -0 0 0 0 0 0 0 0 0 -0 -0 0 0 -0 -0 -0 -0 -0 -0 -0 -0 0 -0 -0 -0
0 0 0 0 0 0 0 0 0 0 0 0 0 0 0 0 0 -0 -0 -0 0 -0 -0 -0 -0 -0 -0 -0 -0 -0 -0 -0
0 0 0 -0 0 0 0 0 0 0 0 1 0 0 0 0 0 0 0 0 0 -0 -0 -0 -0 -0 -0 -0 -0 -0 -0 -0
0 0 0 -0 -0 0 0 0 0 1 1 0 0 0 0 0 0 0 0 0 0 0 0 -0 -0 -0 -0 -0 0 -0 -0 -0
0 0 -0 -0 -0 0 -0 0 1 0 0 0 0 0 0 0 0 0 0 0 0 0 0 0 0 0 0 0 0 0 0 -0
0 0 0 0 0 0 0 1 2 2 0 0 -0 0 0 0 0 0 0 0 0 0 0 0 0 0 0 0 0 0 0 0
0 0 0 -0 -0 0 0 1 1 2 0 0 0 0 0 0 0 0 0 0 0 0 0 0 0 0 0 0 0 0 0 0
0 0 0 0 -0 0 0 1 0 0 0 0 0 -0 0 0 0 0 0 0 0 0 0 0 0 0 0 0 0 0 0 -0
0 0 0 0 -0 0 0 0 0 0 0 0 0 0 0 0 0 0 0 0 0 0 0 0 0 0 0 0 0 0 -0 -0
0 0 0 0 0 0 0 0 0 0 0 0 -0 0 0 0 0 0 0 0 0 0 0 0 0 0 0 0 0 0 0 -0
0 0 0 0 0 0 0 0 0 1 0 0 -0 0 1 0 0 0 0 0 0 0 0 0 0 0 0 0 0 0 -0 -0
0 0 0 0 0 0 0 0 0 1 0 -0 0 1 1 1 0 0 0 0 0 0 0 0 0 0 0 0 0 0 0 -0
0 0 0 0 0 -0 0 0 0 0 0 0 1 1 2 3 1 1 0 0 0 0 0 0 0 0 0 0 0 0 0 0
0 0 0 0 0 -0 0 0 1 1 1 1 0 0 1 0 0 1 1 1 0 1 1 1 1 1 1 0 0 0 0 0
0 0 0 0 0 0 0 0 0 2 0 0 0 0 0 0 0 1 1 0 0 2 3 3 1 1 1 0 0 1 1 1
0 0 0 0 0 0 0 0 0 2 0 0 0 0 0 0 0 0 0 0 0 1 4 4 3 2 1 1 2 3 2 2
0 0 0 0 0 0 0 0 0 0 0 1 1 0 0 0 0 0 0 0 0 0 3 4 3 2 1 2 1 1 1 0
0 0 0 0 0 0 0 0 1 0 0 1 1 1 0 0 0 0 0 0 0 -0 0 1 2 3 2 1 0 0 0 0
0 0 0 0 0 0 0 0 1 0 0 1 1 1 0 0 0 0 0 0 0 0 0 0 2 2 2 1 0 0 0 0
Wind_Speed_500mb
8 9 14 11 11 15 19 51 10 7 10 4 14 31 53 65 89 75 73 68 65 64 60 57 52 47 42 42 46 47 44 40
6 19 16 18 7 7 7 10 15 11 9 11 17 48 42 72 83 74 72 66 64 63 60 56 52 46 42 41 45 47 44 39
8 20 13 16 27 27 12 6 18 29 11 11 10 27 55 76 79 75 73 66 64 65 62 57 52 47 41 40 43 45 43 38
23 13 28 27 38 28 25 38 27 29 25 22 25 44 59 74 75 71 72 68 64 63 62 58 54 50 44 40 42 45 41 37
10 28 33 26 19 20 25 23 18 50 14 27 5 41 54 64 65 64 63 66 67 65 62 57 54 51 48 45 44 45 41 36
14 20 31 10 22 12 28 9 35 45 11 27 37 39 48 63 61 63 64 63 66 65 62 58 55 51 48 45 44 44 41 35
24 27 21 18 3 13 19 38 10 26 43 72 70 62 58 60 55 60 60 61 63 63 60 58 56 53 48 43 41 42 40 35
5 13 6 28 7 14 1 12 10 15 82 77 88 84 76 67 67 67 66 65 61 61 59 58 56 53 50 48 45 41 37 31
4 26 36 33 22 21 6 5 31 48 84 88 89 83 82 71 67 68 67 65 65 60 58 57 55 53 50 45 43 40 35 29
11 36 39 26 18 9 28 35 28 74 100 90 89 92 83 85 81 75 68 66 64 61 59 56 52 50 47 45 41 36 30 29
27 46 59 55 44 13 47 43 31 78 86 92 81 74 62 81 94 79 69 76 71 66 64 59 54 48 44 39 32 27 24 23
46 41 50 33 28 10 54 31 44 78 89 93 83 67 36 55 84 79 66 70 70 69 63 55 48 40 41 37 37 34 28 18
23 46 23 21 21 39 50 34 46 78 98 90 74 54 28 46 78 78 62 52 66 68 63 59 46 31 44 38 38 30 24 17
10 18 22 18 31 41 30 23 43 73 61 59 45 52 25 30 64 74 70 67 65 65 68 57 47 41 37 33 33 30 28 18
8 12 9 20 20 22 34 28 34 57 72 78 60 46 38 26 18 53 73 66 66 64 66 51 56 44 33 34 37 36 31 23
9 3 12 21 34 10 20 22 34 57 52 68 69 69 41 22 19 36 47 37 47 67 69 60 54 54 51 49 39 30 25 23
6 11 7 18 23 16 20 19 32 40 41 43 51 65 39 32 54 77 69 53 39 56 83 73 67 61 64 54 51 39 34 32
8 19 9 21 27 7 9 13 25 53 50 55 49 48 51 62 91 86 63 87 80 51 86 78 67 66 54 50 44 41 39 36
9 13 7 11 14 11 1 14 22 43 60 62 72 71 64 61 76 75 63 45 50 46 38 50 65 60 41 43 53 49 43 52
10 8 6 14 9 9 8 8 7 28 58 67 70 59 49 44 54 62 71 66 64 38 68 52 61 61 64 60 62 59 63 51
Wind_Direction_500mb
170 190 199 221 184 224 267 229 300 115 116 95 124 113 149 159 164 166 163 164 165 168 166 164 161 156 148 146 149 149 147 145
164 233 240 205 153 273 344 270 246 342 22 57 101 144 176 162 162 165 161 163 166 167 169 167 164 158 154 151 154 156 152 149
215 245 244 237 229 234 251 188 198 136 44 46 88 166 165 163 163 166 160 163 166 168 170 170 165 162 161 157 158 159 158 153
224 238 251 251 239 228 227 249 167 104 93 46 139 158 161 167 165 167 162 163 167 170 171 171 168 167 166 163 161 164 163 158
204 231 258 242 237 216 223 212 203 139 103 111 156 156 163 170 168 166 167 165 167 170 172 173 172 171 170 168 166 168 166 165
216 226 254 245 254 263 295 234 159 161 173 138 198 164 171 171 173 173 171 170 169 171 172 174 175 174 173 170 169 169 170 172
215 206 224 301 301 58 10 131 155 174 176 176 170 177 172 174 178 180 176 174 174 173 173 175 176 174 173 171 171 173 176 178
168 245 274 281 305 341 311 114 29 129 156 170 163 175 176 177 181 185 182 177 178 175 173 175 177 176 174 174 175 177 181 181
192 256 266 278 295 349 287 200 175 173 160 168 164 176 183 186 189 188 186 182 180 179 176 178 178 176 176 175 177 180 182 179
298 285 280 263 327 336 285 282 233 184 174 177 172 183 187 190 192 189 190 190 187 183 182 180 179 177 175 176 176 179 178 179
241 252 266 279 271 267 278 283 236 179 174 179 187 187 194 198 195 192 190 192 189 189 189 184 182 179 180 175 177 179 182 186
255 257 263 263 284 239 264 280 214 186 189 188 195 197 186 196 193 192 189 192 192 192 194 187 182 183 181 167 161 158 151 157
239 244 249 274 282 245 254 270 198 195 195 191 199 205 225 195 200 196 196 193 195 194 193 181 178 182 177 165 162 164 155 154
251 199 246 175 257 261 245 253 194 192 196 202 194 189 184 165 201 199 199 195 186 194 193 188 194 182 177 183 179 179 181 179
304 184 214 182 250 272 250 243 174 181 184 187 186 182 173 159 163 199 196 197 193 194 189 191 185 197 185 177 172 169 170 180
185 164 195 259 249 343 274 239 168 186 177 180 189 190 198 195 248 185 161 176 196 203 187 187 182 185 178 189 184 178 167 183
220 252 184 250 265 244 273 254 158 168 165 159 178 193 201 215 237 216 213 268 213 240 195 194 190 194 196 191 187 182 190 197
288 247 169 259 269 201 258 253 185 155 158 175 186 193 203 194 208 210 203 224 220 270 200 207 203 202 197 188 183 192 193 204
217 343 241 265 275 201 200 92 125 144 160 165 175 183 191 193 194 194 188 193 224 266 280 234 207 205 203 201 188 191 197 204
269 23 231 168 265 230 172 100 104 137 154 168 175 178 189 195 203 209 215 240 244 273 276 258 198 193 198 199 195 194 199 197
Wind_Speed_850mb
8 9 14 11 11 15 19 51 10 7 10 4 14 31 53 65 89 75 73 68 65 64 60 57 52 47 42 42 46 47 44 40
6 19 16 18 7 7 7 10 15 11 9 11 17 48 42 72 83 74 72 66 64 63 60 56 52 46 42 41 45 47 44 39
8 20 13 16 27 27 12 6 18 29 11 11 10 27 55 76 79 75 73 66 64 65 62 57 52 47 41 40 43 45 43 38
23 13 28 27 38 28 25 38 27 29 25 22 25 44 59 74 75 71 72 68 64 63 62 58 54 50 44 40 42 45 41 37
10 28 33 26 19 20 25 23 18 50 14 27 5 41 54 64 65 64 63 66 67 65 62 57 54 51 48 45 44 45 41 36
14 20 31 10 22 12 28 9 35 45 11 27 37 39 48 63 61 63 64 63 66 65 62 58 55 51 48 45 44 44 41 35
24 27 21 18 3 13 19 38 10 26 43 72 70 62 58 60 55 60 60 61 63 63 60 58 56 53 48 43 41 42 40 35
5 13 6 28 7 14 1 12 10 15 82 77 88 84 76 67 67 67 66 65 61 61 59 58 56 53 50 48 45 41 37 31
4 26 36 33 22 21 6 5 31 48 84 88 89 83 82 71 67 68 67 65 65 60 58 57 55 53 50 45 43 40 35 29
11 36 39 26 18 9 28 35 28 74 100 90 89 92 83 85 81 75 68 66 64 61 59 56 52 50 47 45 41 36 30 29
27 46 59 55 44 13 47 43 31 78 86 92 81 74 62 81 94 79 69 76 71 66 64 59 54 48 44 39 32 27 24 23
46 41 50 33 28 10 54 31 44 78 89 93 83 67 36 55 84 79 66 70 70 69 63 55 48 40 41 37 37 34 28 18
23 46 23 21 21 39 50 34 46 78 98 90 74 54 28 46 78 78 62 52 66 68 63 59 46 31 44 38 38 30 24 17
10 18 22 18 31 41 30 23 43 73 61 59 45 52 25 30 64 74 70 67 65 65 68 57 47 41 37 33 33 30 28 18
8 12 9 20 20 22 34 28 34 57 72 78 60 46 38 26 18 53 73 66 66 64 66 51 56 44 33 34 37 36 31 23
9 3 12 21 34 10 20 22 34 57 52 68 69 69 41 22 19 36 47 37 47 67 69 60 54 54 51 49 39 30 25 23
6 11 7 18 23 16 20 19 32 40 41 43 51 65 39 32 54 77 69 53 39 56 83 73 67 61 64 54 51 39 34 32
8 19 9 21 27 7 9 13 25 53 50 55 49 48 51 62 91 86 63 87 80 51 86 78 67 66 54 50 44 41 39 36
9 13 7 11 14 11 1 14 22 43 60 62 72 71 64 61 76 75 63 45 50 46 38 50 65 60 41 43 53 49 43 52
10 8 6 14 9 9 8 8 7 28 58 67 70 59 49 44 54 62 71 66 64 38 68 52 61 61 64 60 62 59 63 51
Wind_Direction_850mb
170 190 199 221 184 224 267 229 300 115 116 95 124 113 149 159 164 166 163 164 165 168 166 164 161 156 148 146 149 149 147 145
164 233 240 205 153 273 344 270 246 342 22 57 101 144 176 162 162 165 161 163 166 167 169 167 164 158 154 151 154 156 152 149
215 245 244 237 229 234 251 188 198 136 44 46 88 166 165 163 163 166 160 163 166 168 170 170 165 162 161 157 158 159 158 153
224 238 251 251 239 228 227 249 167 104 93 46 139 158 161 167 165 167 162 163 167 170 171 171 168 167 166 163 161 164 163 158
204 231 258 242 237 216 223 212 203 139 103 111 156 156 163 170 168 166 167 165 167 170 172 173 172 171 170 168 166 168 166 165
216 226 254 245 254 263 295 234 159 161 173 138 198 164 171 171 173 173 171 170 169 171 172 174 175 174 173 170 169 169 170 172
215 206 224 301 301 58 10 131 155 174 176 176 170 177 172 174 178 180 176 174 174 173 173 175 176 174 173 171 171 173 176 178
168 245 274 281 305 341 311 114 29 129 156 170 163 175 176 177 181 185 182 177 178 175 173 175 177 176 174 174 175 177 181 181
192 256 266 278 295 349 287 200 175 173 160 168 164 176 183 186 189 188 186 182 180 179 176 178 178 176 176 175 177 180 182 179
298 285 280 263 327 336 285 282 233 184 174 177 172 183 187 190 192 189 190 190 187 183 182 180 179 177 175 176 176 179 178 179
241 252 266 279 271 267 278 283 236 179 174 179 187 187 194 198 195 192 190 192 189 189 189 184 182 179 180 175 177 179 182 186
255 257 263 263 284 239 264 280 214 186 189 188 195 197 186 196 193 192 189 192 192 192 194 187 182 183 181 167 161 158 151 157
239 244 249 274 282 245 254 270 198 195 195 191 199 205 225 195 200 196 196 193 195 194 193 181 178 182 177 165 162 164 155 154
251 199 246 175 257 261 245 253 194 192 196 202 194 189 184 165 201 199 199 195 186 194 193 188 194 182 177 183 179 179 181 179
304 184 214 182 250 272 250 243 174 181 184 187 186 182 173 159 163 199 196 197 193 194 189 191 185 197 185 177 172 169 170 180
185 164 195 259 249 343 274 239 168 186 177 180 189 190 198 195 248 185 161 176 196 203 187 187 182 185 178 189 184 178 167 183
220 252 184 250 265 244 273 254 158 168 165 159 178 193 201 215 237 216 213 268 213 240 195 194 190 194 196 191 187 182 190 197
288 247 169 259 269 201 258 253 185 155 158 175 186 193 203 194 208 210 203 224 220 270 200 207 203 202 197 188 183 192 193 204
217 343 241 265 275 201 200 92 125 144 160 165 175 183 191 193 194 194 188 193 224 266 280 234 207 205 203 201 188 191 197 204
269 23 231 168 265 230 172 100 104 137 154 168 175 178 189 195 203 209 215 240 244 273 276 258 198 193 198 199 195 194 199 197